This is the latest recevied weather packets stored in our database for station/object 4S6DRJ-13. If no packets are shown the sender has not sent any weather packets the latest 10 day(s).
| Time | Temp. | Humidity | Pressure | Rain* | Wind** | Luminosity | Snow |
|---|---|---|---|---|---|---|---|
| 1777589098 | 26.67° C | 92% | 1006.7 hPa | 0 mm | 1.34 m/s, 116° | 0 W/m² | - |
| 1777589037 | 26.67° C | 92% | 1006.6 hPa | 0 mm | 1.79 m/s, 118° | 0 W/m² | - |
| 1777588976 | 26.67° C | 92% | 1006.7 hPa | 0 mm | 1.34 m/s, 118° | 0 W/m² | - |
| 1777588915 | 26.67° C | 92% | 1006.6 hPa | 0 mm | 1.79 m/s, 106° | 0 W/m² | - |
| 1777588854 | 26.67° C | 92% | 1006.6 hPa | 0 mm | 0.89 m/s, 126° | 0 W/m² | - |
| 1777588794 | 26.67° C | 92% | 1006.5 hPa | 0 mm | 1.34 m/s, 80° | 0 W/m² | - |
| 1777588732 | 26.67° C | 92% | 1006.4 hPa | 0 mm | 0.89 m/s, 121° | 0 W/m² | - |
| 1777588671 | 26.67° C | 92% | 1006.7 hPa | 0 mm | 1.34 m/s, 144° | 0 W/m² | - |
| 1777588610 | 26.67° C | 92% | 1006.5 hPa | 0 mm | 1.34 m/s, 116° | 0 W/m² | - |
| 1777588550 | 26.67° C | 92% | 1006.5 hPa | 0 mm | 1.79 m/s, 97° | 0 W/m² | - |
| 1777588488 | 26.67° C | 92% | 1006.7 hPa | 0 mm | 0.89 m/s, 103° | 0 W/m² | - |
| 1777588427 | 26.67° C | 92% | 1006.7 hPa | 0 mm | 0.45 m/s, 110° | 0 W/m² | - |
| 1777588366 | 26.67° C | 92% | 1006.5 hPa | 0 mm | 0.89 m/s, 111° | 0 W/m² | - |
| 1777588305 | 26.67° C | 92% | 1006.5 hPa | 0 mm | 0.89 m/s, 138° | 0 W/m² | - |
| 1777588244 | 26.67° C | 92% | 1006.6 hPa | 0 mm | 1.34 m/s, 133° | 0 W/m² | - |
| 1777588183 | 26.67° C | 92% | 1006.5 hPa | 0 mm | 0.89 m/s, 106° | 0 W/m² | - |
| 1777588122 | 26.67° C | 92% | 1006.6 hPa | 0 mm | 1.34 m/s, 107° | 0 W/m² | - |
| 1777588061 | 26.67° C | 92% | 1006.5 hPa | 0 mm | 0.89 m/s, 115° | 0 W/m² | - |
| 1777588000 | 26.67° C | 92% | 1006.5 hPa | 0 mm | 1.34 m/s, 118° | 0 W/m² | - |
| 1777587939 | 26.67° C | 92% | 1006.6 hPa | 0 mm | 0.89 m/s, 126° | 0 W/m² | - |
| 1777587881 | 26.67° C | 92% | 1006.5 hPa | 0 mm | 0.89 m/s, 111° | 0 W/m² | - |
| 1777587817 | 26.67° C | 92% | 1006.6 hPa | 0 mm | 1.34 m/s, 132° | 0 W/m² | - |
| 1777587757 | 26.67° C | 93% | 1006.4 hPa | 0 mm | 0.89 m/s, 84° | 0 W/m² | - |
| 1777587695 | 26.67° C | 93% | 1006.6 hPa | 0 mm | 0.45 m/s, 83° | 0 W/m² | - |
| 1777587634 | 26.67° C | 93% | 1006.6 hPa | 0 mm | 0.89 m/s, 67° | 0 W/m² | - |
* Rain latest hour (hover to see other rain measurements)
** Current wind speed in m/s (hover to see current wind gust speed)